Regional Weather Roundup
Issued by NWS

Home | Current Version | Previous Version | Text Only | Print | Product List | Glossary On
Versions: 1 2 3 4 5 6 7 8 9 10 11 12 13 14 15 16 17 18 19 20 21 22 23 24 25 26 27 28 29 30 31 32 33 34 35 36 37 38 39 40 41 42 43 44 45 46 47 48 49 50
000
ASUS44 KBMX 281010
RWRAL

ALABAMA REGIONAL WEATHER ROUNDUP
NATIONAL WEATHER SERVICE BIRMINGHAM AL
500 AM CDT WED SEP 28 2016

NOTE: "FAIR" INDICATES FEW OR NO CLOUDS BELOW 12,000 FEET
WITH NO SIGNIFICANT WEATHER AND/OR OBSTRUCTIONS TO VISIBILITY.

THE REMARK "TC" DENOTES TEMPERATURE IN DEGREES CELSIUS.

ALZ001>011-014-016>018-020-281100-
NORTH ALABAMA

CITY           SKY/WX    TMP DP  RH WIND       PRES   REMARKS
MUSCLE SHOALS  CLEAR     49  46  90 CALM      29.96S
HUNTSVILLE     CLEAR     53  48  83 CALM      29.95S
DECATUR        CLEAR     48  47  96 CALM      29.96S
HALEYVILLE     FAIR      49  46  90 CALM      29.98R
GADSDEN        CLEAR     57  54  89 CALM      29.96R
$$

ALZ012-013-022-023-030>036-040>044-281100-
WEST CENTRAL ALABAMA

CITY           SKY/WX    TMP DP  RH WIND       PRES   REMARKS
TUSCALOOSA     CLEAR     59  55  87 CALM      29.95R
$$

ALZ015-024>027-033>036-040>044-281100-
CENTRAL ALABAMA

CITY           SKY/WX    TMP DP  RH WIND       PRES   REMARKS
BIRMINGHAM     CLEAR     61  55  81 CALM      29.97R
MONTGOMERY     CLEAR     70  65  84 SW3       29.93R
SHELBY CO ARPT CLEAR     62  56  80 CALM      29.95R
MAXWELL AFB    CLEAR     69  68  99 W2        29.92R
GREENVILLE     NOT AVBL
$$

ALZ019-021-028-029-037-038-045>048-281100-
EAST CENTRAL ALABAMA

CITY           SKY/WX    TMP DP  RH WIND       PRES   REMARKS
ANNISTON       CLEAR     62  59  90 CALM      29.94R
ALEXANDER CITY CLEAR     70  70 100 CALM      29.94R
AUBURN         CLOUDY    70  67  90 W3        29.95R
$$

ALZ051>064-281100-
SOUTHWEST ALABAMA

CITY           SKY/WX    TMP DP  RH WIND       PRES   REMARKS
MOBILE         PTCLDY    70  64  81 NW5       29.94S
BROOKLEY FIELD PTCLDY    72  68  87 NW7       29.94S
EVERGREEN      CLOUDY    69  67  93 CALM      29.93S FOG
$$

ALZ049-050-065>069-281100-
SOUTHEAST ALABAMA

CITY           SKY/WX    TMP DP  RH WIND       PRES   REMARKS
DOTHAN         PTCLDY    72  72 100 W3        29.96R
OZARK          CLEAR     70  70 100 CALM      29.93R
TROY           MOCLDY    67  67 100 CALM      29.93S
EUFAULA        NOT AVBL
$$



USA.gov is the U.S. government's official web portal to all federal, state and local government web resources and services.